Preview of NWS' New Version of Forecast
This preview is not operational and should not be used for support decisions.

Regional Weather Roundup (RWR)

Issued by National Weather Service (NWS)

                            
000
ASPQ40 PGUM 200510
RWRPQ 
WEATHER ROUNDUP FOR THE MARIANAS AND MICRONESIA
NATIONAL WEATHER SERVICE TIYAN GU
300 PM CHST WED FEB 20 2019

GUZ001>004-200600-
MARIANA ISLANDS-
  
CITY           SKY/WX    TMP DP  RH WIND       PRES   REMARKS
GUAM AIRPORT   PTSUNNY   82  79  89 NE30G39   29.93F HX  93           
ANDERSEN AFB   CLOUDY    77  72  83 NE24G32   29.93F                  
ROTA AIRPORT   PTSUNNY   81  73  78 NE16      29.92F                  
TINIAN AP      MOSUNNY  N/A N/A N/A E20       29.92F                  
SAIPAN AP      MOSUNNY   84  70  61 NE21G30   29.93F                  

$$

PMZ161-200600-
REPUBLIC OF PALAU-
  
CITY           SKY/WX    TMP DP  RH WIND       PRES   REMARKS
KOROR AP       CLOUDY    84  75  74 NE13G24   29.92F HX  92           
KOROR WSO      NOT AVBL                                               

$$

PMZ171>174-200600-
FEDERATED STATES OF MICRONESIA-
  
CITY           SKY/WX    TMP DP  RH WIND       PRES   REMARKS
YAP AIRPORT    CLOUDY    82  75  78 N16       29.88F                  
CHUUK AP       HVY RAIN  79  77  94 N17G33    29.63F                  
POHNPEI AP     NOT AVBL                                               
POHNPEI WSO    CLOUDY    84  79  84 E7        29.73F HX  96           
KOSRAE AP      NOT AVBL                                               

$$

PMZ181-200600-
REPUBLIC OF THE MARSHALL ISLANDS-
  
CITY           SKY/WX    TMP DP  RH WIND       PRES   REMARKS
KWAJALEIN AP   NOT AVBL                                               
MAJURO AP      MOSUNNY   86  77  74 E21       29.80R HX  97           
MAJURO WSO     NOT AVBL                                               

$$